When you browse on this site, cookies collect data to enhance your experience and personalize the content and advertising you see.
Visit our Privacy Policy to learn more. By continuing to use the site, you agree to this use of cookies and data.
  • In Portugal
  • List of Countries
  • For 7 days
  • Water Temperature
  • Satellite Maps
  • Weather Map
  • Weather Widgets
  • user-avatar
    Login

    Hourly Weather Kalyal

    Today, 24 June, Monday

    Time Temperature Precipitation Wind Pressure Humidity
    00:00 +13°C° 0 mm 1 mps 601 mmHg 77%
    01:00 +13°C° 0 mm 1 mps 601 mmHg 76%
    02:00 +13°C° 0 mm 2 mps 601 mmHg 74%
    03:00 +14°C° 0 mm 2 mps 601 mmHg 71%
    04:00 +15°C° 0 mm 2 mps 602 mmHg 69%
    05:00 +16°C° 0 mm 1 mps 603 mmHg 67%
    06:00 +19°C° 0 mm 1 mps 603 mmHg 65%
    07:00 +20°C° 0 mm 1 mps 604 mmHg 62%
    08:00 +20°C° 0 mm 2 mps 604 mmHg 59%
    09:00 +23°C° 0 mm 2 mps 605 mmHg 55%
    10:00 +23°C° 0.9 mm 2 mps 605 mmHg 56%
    11:00 +23°C° 0.9 mm 2 mps 605 mmHg 57%
    12:00 +23°C° 0.9 mm 2 mps 605 mmHg 58%
    13:00 +23°C° 0.8 mm 2 mps 605 mmHg 57%
    14:00 +24°C° 0.8 mm 2 mps 604 mmHg 56%
    15:00 +23°C° 0 mm 2 mps 604 mmHg 57%
    16:00 +23°C° 0.4 mm 2 mps 604 mmHg 58%
    17:00 +21°C° 0.4 mm 2 mps 604 mmHg 59%
    18:00 +22°C° 0.4 mm 1 mps 604 mmHg 60%
    19:00 +20°C° 0 mm 1 mps 603 mmHg 63%
    20:00 +18°C° 0 mm 1 mps 603 mmHg 67%
    21:00 +15°C° 0 mm 1 mps 602 mmHg 70%
    22:00 +14°C° 0 mm 1 mps 602 mmHg 70%
    23:00 +14°C° 0 mm 1 mps 602 mmHg 70%

    Tomorrow, 25 June, Tuesday

    Time Temperature Precipitation Wind Pressure Humidity
    00:00 +14°C° 0 mm 1 mps 602 mmHg 70%
    01:00 +14°C° 0 mm 1 mps 602 mmHg 70%
    02:00 +14°C° 0 mm 2 mps 602 mmHg 69%
    03:00 +14°C° 0 mm 2 mps 602 mmHg 68%
    04:00 +15°C° 0 mm 2 mps 602 mmHg 65%
    05:00 +16°C° 0 mm 1 mps 603 mmHg 62%
    06:00 +19°C° 0 mm 1 mps 604 mmHg 60%
    07:00 +20°C° 0 mm 1 mps 604 mmHg 55%
    08:00 +20°C° 0 mm 2 mps 605 mmHg 50%
    09:00 +23°C° 0 mm 2 mps 606 mmHg 45%
    10:00 +23°C° 0.2 mm 2 mps 606 mmHg 44%
    11:00 +24°C° 0.2 mm 2 mps 606 mmHg 44%
    12:00 +25°C° 0.2 mm 3 mps 606 mmHg 43%
    13:00 +25°C° 0.2 mm 3 mps 606 mmHg 43%
    14:00 +25°C° 0.2 mm 3 mps 606 mmHg 42%
    15:00 +25°C° 0.2 mm 2 mps 606 mmHg 41%
    16:00 +24°C° 0.1 mm 2 mps 606 mmHg 43%
    17:00 +24°C° 0.1 mm 2 mps 605 mmHg 46%
    18:00 +23°C° 0.1 mm 1 mps 605 mmHg 48%
    19:00 +21°C° 0 mm 1 mps 604 mmHg 52%
    20:00 +18°C° 0 mm 1 mps 603 mmHg 55%
    21:00 +15°C° 0 mm 1 mps 603 mmHg 58%
    22:00 +14°C° 0 mm 1 mps 602 mmHg 59%
    23:00 +14°C° 0 mm 1 mps 602 mmHg 60%

    Day after tomorrow, 26 June, Wednesday

    Time Temperature Precipitation Wind Pressure Humidity
    00:00 +13°C° 0 mm 1 mps 602 mmHg 61%
    01:00 +13°C° 0 mm 1 mps 602 mmHg 60%
    02:00 +13°C° 0 mm 2 mps 602 mmHg 60%
    03:00 +13°C° 0 mm 2 mps 602 mmHg 59%
    04:00 +15°C° 0 mm 2 mps 603 mmHg 58%
    05:00 +16°C° 0 mm 1 mps 604 mmHg 56%
    06:00 +18°C° 0 mm 1 mps 604 mmHg 55%
    07:00 +20°C° 0 mm 1 mps 605 mmHg 51%
    08:00 +20°C° 0 mm 2 mps 606 mmHg 47%
    09:00 +21°C° 0 mm 2 mps 606 mmHg 43%
    10:00 +23°C° 0.1 mm 2 mps 606 mmHg 44%
    11:00 +23°C° 0.1 mm 2 mps 606 mmHg 45%
    12:00 +24°C° 0.1 mm 3 mps 606 mmHg 45%
    13:00 +24°C° 0.3 mm 3 mps 606 mmHg 45%
    14:00 +24°C° 0.3 mm 3 mps 606 mmHg 44%
    15:00 +24°C° 0.3 mm 2 mps 606 mmHg 44%
    16:00 +23°C° 0.2 mm 2 mps 605 mmHg 47%
    17:00 +21°C° 0.2 mm 2 mps 605 mmHg 49%
    18:00 +21°C° 0.2 mm 2 mps 605 mmHg 52%
    19:00 +19°C° 0.1 mm 1 mps 604 mmHg 59%
    20:00 +16°C° 0.1 mm 1 mps 603 mmHg 65%
    21:00 +14°C° 0.1 mm 1 mps 602 mmHg 71%
    22:00 +13°C° 0 mm 1 mps 602 mmHg 73%
    23:00 +13°C° 0 mm 1 mps 602 mmHg 74%

    27 June, Thursday

    Time Temperature Precipitation Wind Pressure Humidity
    00:00 +12°C° 0 mm 1 mps 601 mmHg 76%
    01:00 +12°C° 0 mm 1 mps 601 mmHg 76%
    02:00 +12°C° 0 mm 1 mps 601 mmHg 76%
    03:00 +12°C° 0 mm 1 mps 601 mmHg 76%
    04:00 +13°C° 0.2 mm 1 mps 601 mmHg 74%
    05:00 +13°C° 0.2 mm 0 mps 602 mmHg 73%
    06:00 +14°C° 0.2 mm 0 mps 602 mmHg 71%
    07:00 +16°C° 0.6 mm 1 mps 603 mmHg 70%
    08:00 +17°C° 0.6 mm 2 mps 603 mmHg 70%
    09:00 +18°C° 0.6 mm 2 mps 603 mmHg 69%
    10:00 +19°C° 0.6 mm 2 mps 603 mmHg 68%
    11:00 +19°C° 0.6 mm 2 mps 603 mmHg 67%
    12:00 +19°C° 0.6 mm 3 mps 603 mmHg 66%
    13:00 +19°C° 0.7 mm 2 mps 603 mmHg 68%
    14:00 +19°C° 0.7 mm 2 mps 602 mmHg 70%
    15:00 +19°C° 0.7 mm 2 mps 602 mmHg 71%
    16:00 +18°C° 0.2 mm 2 mps 602 mmHg 73%
    17:00 +18°C° 0.2 mm 2 mps 601 mmHg 74%
    18:00 +18°C° 0.2 mm 2 mps 601 mmHg 76%
    19:00 +16°C° 0.1 mm 1 mps 601 mmHg 79%
    20:00 +15°C° 0.1 mm 1 mps 600 mmHg 83%
    21:00 +13°C° 0.1 mm 1 mps 599 mmHg 86%
    22:00 +12°C° 0 mm 1 mps 599 mmHg 86%
    23:00 +12°C° 0 mm 1 mps 598 mmHg 86%

    28 June, Friday

    Time Temperature Precipitation Wind Pressure Humidity
    00:00 +11°C° 0 mm 1 mps 598 mmHg 86%
    01:00 +11°C° 0 mm 1 mps 597 mmHg 85%
    02:00 +11°C° 0 mm 1 mps 597 mmHg 84%
    03:00 +11°C° 0 mm 1 mps 597 mmHg 83%
    04:00 +12°C° 0 mm 1 mps 597 mmHg 81%
    05:00 +13°C° 0 mm 1 mps 598 mmHg 80%
    06:00 +14°C° 0 mm 1 mps 598 mmHg 78%
    07:00 +15°C° 0 mm 1 mps 598 mmHg 75%
    08:00 +16°C° 0 mm 2 mps 599 mmHg 73%
    09:00 +17°C° 0 mm 2 mps 599 mmHg 70%
    10:00 +18°C° 0.5 mm 2 mps 599 mmHg 67%
    11:00 +19°C° 0.5 mm 2 mps 599 mmHg 64%
    12:00 +19°C° 0.5 mm 2 mps 598 mmHg 61%
    13:00 +20°C° 0.6 mm 2 mps 598 mmHg 61%
    14:00 +20°C° 0.6 mm 2 mps 598 mmHg 61%
    15:00 +20°C° 0.6 mm 2 mps 598 mmHg 60%
    16:00 +19°C° 0.6 mm 2 mps 598 mmHg 63%
    17:00 +19°C° 0.6 mm 2 mps 597 mmHg 66%
    18:00 +18°C° 0.6 mm 2 mps 597 mmHg 69%
    19:00 +18°C° 0.1 mm 1 mps 597 mmHg 71%
    20:00 +16°C° 0.1 mm 1 mps 596 mmHg 73%
    21:00 +14°C° 0.1 mm 1 mps 596 mmHg 75%
    22:00 +14°C° 0 mm 1 mps 596 mmHg 76%
    23:00 +14°C° 0 mm 1 mps 596 mmHg 78%

    29 June, Saturday

    Time Temperature Precipitation Wind Pressure Humidity
    00:00 +14°C° 0 mm 1 mps 596 mmHg 79%
    01:00 +14°C° 0 mm 1 mps 596 mmHg 79%
    02:00 +14°C° 0 mm 1 mps 596 mmHg 79%
    03:00 +13°C° 0 mm 0 mps 596 mmHg 79%
    04:00 +13°C° 0 mm 0 mps 596 mmHg 79%
    05:00 +14°C° 0 mm 0 mps 596 mmHg 78%
    06:00 +14°C° 0 mm 0 mps 596 mmHg 78%
    07:00 +16°C° 0.1 mm 1 mps 597 mmHg 74%
    08:00 +17°C° 0.1 mm 2 mps 597 mmHg 70%
    09:00 +18°C° 0.1 mm 2 mps 597 mmHg 67%
    10:00 +19°C° 0.4 mm 2 mps 597 mmHg 65%
    11:00 +19°C° 0.4 mm 3 mps 598 mmHg 64%
    12:00 +20°C° 0.4 mm 3 mps 598 mmHg 62%
    13:00 +20°C° 0.4 mm 3 mps 598 mmHg 61%
    14:00 +20°C° 0.4 mm 3 mps 597 mmHg 61%
    15:00 +20°C° 0.4 mm 2 mps 597 mmHg 60%
    16:00 +20°C° 0.3 mm 2 mps 597 mmHg 63%
    17:00 +19°C° 0.3 mm 2 mps 597 mmHg 66%
    18:00 +18°C° 0.3 mm 2 mps 597 mmHg 70%
    19:00 +17°C° 0.5 mm 2 mps 596 mmHg 75%
    20:00 +16°C° 0.5 mm 1 mps 596 mmHg 80%
    21:00 +15°C° 0.5 mm 1 mps 596 mmHg 86%
    22:00 +14°C° 0.9 mm 1 mps 596 mmHg 89%
    23:00 +14°C° 0.9 mm 1 mps 596 mmHg 92%
    Show more